Vertical_Velocity
1 2 0 -0 -0 -3 -0 -2 -2 1 -0 2 2 -0 -2 -4 -1 0 6 10 3 2 0 -1 1 1 -0 1 -0 1 -1 1 -1 1 1 -0 -2 -1 1 0 1 1 0
-2 0 1 -1 -0 -0 2 1 0 1 -1 -1 1 2 -2 -2 -1 -2 1 10 -5 6 4 -1 1 0 1 -2 1 0 0 -0 -2 2 -2 1 -0 0 0 2 1 2 0
1 -1 -1 5 -0 -0 -2 1 0 -1 -0 -0 0 1 2 -0 -1 -2 -6 12 5 4 1 -0 0 0 0 -1 -0 0 0 -1 -1 0 1 2 -0 -1 1 1 0 1 1
0 -1 -2 0 -0 -0 -2 1 -0 -0 -0 2 -1 1 2 -1 -0 -0 5 2 3 2 0 -1 0 -1 2 -2 0 0 1 -1 -1 -0 -0 -0 2 1 -1 -0 1 1 0
-2 -1 -0 -0 0 -1 -1 1 2 -1 -0 1 2 1 -3 -1 1 -4 7 5 3 -0 -2 2 -1 -0 -0 -0 0 0 0 -1 1 0 -0 1 2 1 -1 -1 -0 0 -0
-1 -1 -0 0 -1 -2 -2 -1 -0 1 1 3 2 0 -2 1 2 -15 13 1 -4 -2 -0 -0 -1 -1 -1 2 0 1 1 1 -1 2 -0 -1 1 1 -0 -0 2 1 -1
-0 2 2 -2 -0 -1 -1 -0 -3 -2 2 1 3 0 1 -1 -2 -12 26 8 -3 -1 -1 0 0 -0 0 1 -0 1 -0 -0 0 1 2 3 2 -0 1 1 1 2 2
-1 -2 0 2 0 0 -4 -1 0 -0 -1 1 3 6 -3 5 -1 4 -2 6 -2 -0 -1 -1 1 0 0 1 3 3 1 2 3 1 3 4 2 3 1 -1 -0 3 4
0 -1 1 1 1 2 -1 -0 -2 -0 1 3 2 5 -5 -9 0 2 -7 7 -4 0 1 -1 2 1 1 2 0 0 -1 0 1 2 2 2 5 3 2 1 1 -0 2
0 -1 -2 0 1 1 0 2 -0 1 -1 2 1 1 0 -4 -17 1 10 1 1 -3 1 -0 1 1 1 1 1 3 3 2 2 1 -0 0 0 2 2 1 0 -0 3
5 -1 -2 -0 1 -0 2 -2 0 0 1 0 1 5 3 2 -1 5 5 1 2 -4 -1 1 4 2 0 1 1 -1 2 3 1 2 2 2 1 1 3 3 2 1 4
5 -2 2 0 1 1 -1 1 -2 1 1 0 2 1 -2 -7 0 -5 10 -5 0 5 0 -11 1 5 3 3 3 3 1 2 -2 2 -0 1 2 3 2 2 2 2 -1
-3 -1 3 2 2 2 -1 -0 -0 2 1 1 3 1 -12 8 -2 3 6 1 3 4 -4 6 -6 -2 0 0 -0 2 0 2 1 1 0 0 -0 1 2 2 3 3 -3
6 -10 -0 2 2 3 -0 -0 1 2 0 -0 1 0 1 -2 6 8 -1 3 -2 -1 -0 -0 -1 5 7 -6 5 6 -0 2 4 0 1 1 0 1 1 2 2 1 -6
2 7 1 3 1 1 -0 1 1 1 -1 1 -1 1 0 -0 8 -5 -6 -0 -3 -7 -9 -3 -1 -1 -3 -9 -3 -7 1 2 -2 1 3 1 1 0 1 1 3 1 1
1 3 2 1 -1 3 -0 1 0 1 -2 0 -2 -1 -2 -0 0 12 -4 -3 -1 1 -0 2 1 -5 -3 2 3 1 -2 3 -1 -5 -6 -0 1 1 1 -0 -0 1 -4
2 -2 1 1 1 2 -1 0 1 0 -1 1 0 -1 -5 -3 8 10 16 1 2 -2 -1 2 -5 -3 0 1 3 3 1 2 -1 -1 -2 -0 3 1 1 1 -2 -0 -5
1 2 3 1 1 0 1 -1 1 1 2 0 1 0 -3 7 -2 2 -2 0 -1 -2 -3 -4 5 1 -1 -2 -1 3 1 1 1 2 -7 6 9 3 3 -0 0 4 0
9 2 3 2 -1 1 1 -0 -0 2 1 1 1 -2 3 -2 10 -0 -7 24 5 1 7 -3 5 4 4 1 5 -4 7 3 -2 9 12 1 -4 -1 1 1 3 3 -1
-3 2 1 2 -0 3 -2 -2 -1 2 1 -1 3 -2 5 -3 12 4 4 1 8 21 7 9 5 -1 17 8 0 8 4 5 4 -1 -2 -3 0 -7 3 -2 -5 -4 -4
-19 8 7 1 1 3 -1 -1 -0 2 -0 -1 1 2 -2 1 2 -0 -2 -2 3 4 7 -1 7 4 -1 1 2 12 0 8 2 -6 -5 -3 10 -4 -4 1 4 3 -2
6 4 6 4 4 6 2 2 1 1 -1 -1 -1 -0 -0 -0 -3 1 -3 -6 -3 -3 -1 -3 -1 -7 5 1 -5 1 1 -1 -1 4 -4 -6 -8 -2 -3 -4 -1 -3 -5
18 -8 -3 7 1 -7 0 4 5 1 -1 -1 -0 1 -3 2 1 1 -5 1 1 2 0 0 -0 0 -2 2 -2 -4 -2 1 -3 -0 3 -1 -2 -2 1 -4 -6 4 -3
10 3 -3 -1 3 -1 -14 1 2 2 -0 0 1 1 1 3 1 1 0 1 2 1 1 0 2 0 0 2 4 1 -2 -2 -0 -0 -4 -2 8 2 -3 1 13 6 3
16 2 4 -3 -1 4 6 -12 -6 0 -1 1 1 1 0 2 2 2 1 1 1 -1 1 -0 -2 1 -1 -1 -3 -1 -9 13 -4 -7 -3 1 -6 2 14 -4 3 -4 -0
40 3 10 4 -9 -0 14 2 7 -2 2 -1 3 0 1 -3 3 0 -2 -2 3 -1 -1 1 -1 -2 3 0 6 2 -2 8 1 12 -1 14 4 4 -2 -0 -0 1 -1
Height
3126 3125 3126 3126 3126 3128 3129 3131 3133 3134 3135 3136 3136 3135 3136 3137 3139 3139 3139 3140 3144 3146 3149 3150 3153 3155 3157 3158 3160 3162 3163 3165 3167 3170 3172 3173 3174 3176 3178 3180 3181 3182 3183
3123 3123 3122 3122 3123 3124 3126 3127 3128 3129 3129 3131 3131 3131 3130 3132 3134 3134 3133 3133 3138 3142 3145 3147 3150 3153 3155 3157 3158 3159 3162 3164 3166 3168 3171 3173 3173 3175 3177 3179 3180 3180 3181
3120 3120 3120 3119 3119 3120 3121 3122 3123 3124 3124 3125 3126 3126 3126 3127 3129 3129 3128 3129 3133 3138 3142 3144 3148 3151 3152 3154 3156 3157 3160 3162 3164 3167 3170 3172 3172 3173 3175 3176 3177 3179 3179
3116 3115 3116 3116 3116 3116 3116 3117 3118 3119 3119 3119 3121 3121 3122 3121 3123 3122 3123 3125 3130 3135 3139 3142 3145 3147 3149 3151 3154 3155 3157 3159 3162 3165 3168 3170 3171 3171 3173 3174 3176 3177 3177
3112 3112 3112 3112 3112 3112 3112 3112 3113 3114 3114 3114 3115 3115 3116 3117 3116 3116 3118 3123 3126 3132 3135 3138 3140 3143 3146 3148 3150 3152 3155 3157 3159 3162 3165 3167 3168 3169 3170 3171 3173 3173 3174
3108 3108 3108 3108 3108 3107 3107 3107 3108 3108 3109 3109 3109 3110 3111 3112 3112 3111 3114 3119 3123 3128 3131 3133 3135 3139 3142 3145 3147 3150 3152 3154 3156 3159 3162 3164 3166 3166 3167 3169 3170 3171 3172
3103 3104 3104 3104 3103 3103 3102 3101 3101 3102 3103 3104 3104 3104 3105 3106 3107 3108 3108 3115 3119 3123 3126 3129 3131 3135 3138 3141 3144 3146 3149 3151 3153 3156 3159 3161 3163 3164 3165 3166 3167 3169 3169
3098 3100 3100 3100 3099 3098 3097 3096 3096 3096 3097 3098 3098 3098 3099 3101 3101 3103 3105 3110 3115 3118 3122 3125 3127 3130 3134 3137 3140 3142 3145 3147 3149 3152 3154 3156 3159 3161 3162 3164 3164 3165 3166
3093 3094 3095 3095 3095 3094 3093 3091 3091 3090 3091 3092 3092 3092 3092 3093 3097 3098 3100 3104 3109 3114 3118 3121 3124 3126 3130 3133 3135 3138 3141 3144 3146 3148 3150 3152 3154 3156 3158 3159 3161 3161 3162
3088 3089 3090 3090 3090 3090 3089 3087 3086 3085 3085 3085 3085 3084 3085 3086 3088 3090 3094 3099 3103 3108 3113 3116 3120 3122 3125 3128 3130 3133 3136 3139 3141 3144 3145 3147 3149 3151 3153 3155 3156 3157 3158
3082 3083 3084 3084 3085 3084 3083 3082 3080 3080 3079 3079 3078 3080 3080 3080 3079 3080 3088 3092 3097 3103 3108 3111 3115 3118 3121 3123 3126 3129 3131 3134 3137 3138 3140 3142 3144 3146 3148 3149 3151 3153 3154
3074 3077 3078 3079 3079 3079 3078 3077 3075 3074 3074 3073 3073 3075 3073 3070 3072 3078 3083 3088 3093 3098 3101 3105 3110 3113 3116 3120 3123 3125 3127 3128 3131 3132 3134 3136 3138 3140 3142 3144 3145 3147 3147
3066 3071 3072 3073 3074 3073 3072 3071 3069 3068 3068 3068 3068 3069 3069 3068 3071 3074 3078 3084 3089 3093 3094 3097 3104 3108 3111 3114 3118 3119 3121 3122 3124 3125 3128 3129 3132 3134 3136 3138 3139 3140 3140
3059 3062 3065 3066 3067 3067 3066 3065 3063 3062 3063 3064 3064 3065 3065 3066 3067 3070 3075 3080 3083 3087 3090 3093 3099 3103 3104 3110 3111 3113 3115 3117 3118 3120 3121 3123 3125 3127 3129 3131 3133 3134 3134
3050 3053 3056 3058 3060 3061 3060 3059 3058 3057 3058 3059 3060 3061 3062 3063 3065 3068 3071 3075 3077 3082 3084 3088 3091 3096 3100 3103 3104 3105 3106 3107 3111 3112 3114 3116 3118 3120 3122 3124 3125 3126 3126
3042 3044 3047 3051 3053 3054 3054 3054 3052 3052 3053 3054 3056 3058 3059 3060 3063 3066 3068 3072 3074 3078 3080 3083 3088 3091 3093 3095 3096 3098 3099 3101 3102 3103 3106 3109 3111 3112 3113 3115 3117 3117 3118
3034 3037 3040 3044 3047 3048 3048 3047 3047 3047 3048 3049 3051 3053 3055 3056 3059 3062 3064 3067 3070 3073 3076 3080 3083 3084 3086 3088 3090 3091 3092 3094 3095 3097 3099 3102 3103 3105 3106 3107 3107 3107 3107
3025 3029 3033 3036 3039 3041 3042 3041 3041 3042 3043 3043 3046 3048 3051 3054 3054 3057 3060 3062 3064 3067 3070 3073 3076 3078 3080 3081 3083 3085 3086 3087 3088 3090 3092 3094 3096 3096 3096 3096 3097 3098 3098
3017 3020 3024 3028 3032 3034 3035 3035 3035 3036 3037 3038 3041 3043 3046 3048 3050 3052 3055 3055 3058 3060 3063 3065 3068 3071 3072 3073 3076 3077 3079 3081 3082 3084 3085 3084 3087 3088 3089 3089 3089 3090 3090
3010 3012 3017 3021 3025 3027 3028 3028 3029 3030 3031 3032 3034 3037 3040 3041 3044 3046 3047 3050 3051 3053 3056 3058 3060 3061 3063 3065 3066 3070 3071 3073 3076 3074 3076 3076 3078 3079 3079 3080 3081 3081 3080
3002 3007 3009 3013 3017 3020 3022 3022 3023 3024 3026 3027 3028 3030 3032 3035 3036 3039 3041 3043 3044 3047 3048 3051 3052 3054 3056 3057 3059 3062 3064 3066 3067 3067 3068 3069 3069 3071 3072 3072 3071 3071 3071
2996 3000 3001 3006 3010 3014 3016 3017 3018 3019 3020 3021 3022 3023 3026 3027 3030 3032 3033 3036 3038 3039 3040 3042 3044 3046 3049 3050 3050 3052 3054 3057 3058 3059 3060 3061 3061 3061 3061 3061 3060 3060 3059
2986 2990 2993 2999 3002 3007 3008 3011 3012 3012 3014 3015 3016 3018 3019 3021 3023 3025 3027 3029 3030 3032 3033 3035 3037 3039 3041 3043 3044 3046 3047 3049 3051 3053 3052 3051 3051 3050 3049 3049 3049 3049 3048
2980 2981 2986 2990 2994 2996 3000 3004 3005 3006 3007 3009 3010 3012 3014 3016 3017 3019 3021 3023 3025 3027 3028 3029 3030 3032 3034 3036 3038 3040 3042 3042 3042 3042 3042 3041 3040 3040 3038 3038 3037 3037 3035
2968 2969 2977 2980 2985 2989 2991 2991 2995 2998 3000 3002 3003 3005 3007 3009 3011 3013 3015 3017 3019 3020 3021 3022 3023 3025 3027 3029 3029 3031 3032 3032 3033 3033 3033 3032 3032 3030 3028 3027 3025 3023 3021
2960 2965 2969 2973 2976 2981 2981 2984 2985 2986 2991 2994 2996 2998 3000 3002 3004 3005 3007 3010 3012 3013 3013 3015 3015 3016 3018 3019 3021 3021 3023 3022 3023 3021 3022 3021 3021 3020 3017 3015 3013 3010 3008